Regional Weather Roundup
Issued by NWS Sterling, VA

Home | Current Version | Previous Version | Graphics & Text | Print | Product List | Glossary On
Versions: 1 2 3 4 5 6 7 8 9 10 11 12 13 14 15 16 17 18 19 20 21 22 23 24 25 26 27 28 29 30 31 32 33 34 35 36 37 38 39 40 41 42 43 44 45 46 47 48 49 50
000
ASUS41 KLWX 012010
RWRLWX

REGIONAL WEATHER ROUNDUP
NATIONAL WEATHER SERVICE BALTIMORE MD/WASHINGTON DC
400 PM EDT WED APR 01 2015

Note: "FAIR" indicates few or no clouds below 12,000 feet
with no significant weather and/or obstructions to visibility.
 TC=TEMPERATURE CELSIUS

 * =Non NWS site. Station does not report precipitation (e.g. rain,
    snow, etc.), thunder, or fog.

DCZ001-MDZ009-015-VAZ040>042-051-053>054-012100-
WASHINGTON METRO

CITY           SKY/WX    TMP DP  RH WIND       PRES   REMARKS
WASHINGTON NAT MOSUNNY   60  26  27 NW15G22   30.16S
DULLES         MOSUNNY   57  25  29 NW14G22   30.15S
ANDREWS AFB    SUNNY     56  25  30 NW18      30.14R
FT BELVOIR     SUNNY     57  25  28 NW13G20   30.16R
QUANTICO       MOSUNNY   60  24  25 N15G22    30.17R
COLLEGE PARK*  PTSUNNY   55  27  33 NW7       30.15S
LEESBURG*      MOSUNNY   57  30  35 N13G18    30.15F
MANASSAS*      SUNNY     59  25  27 NE14G20   30.15S
GAITHERSBURG*  MOSUNNY   55  27  33 N6G18     30.18S

$$

MDZ006>007-011-014-012100-
BALTIMORE METRO

CITY           SKY/WX    TMP DP  RH WIND       PRES   REMARKS
BWI AIRPORT    MOSUNNY   57  24  28 NW20G26   30.14R
MD SCIENCE CTR   N/A     57  21  24 MISG      30.14S
MARTIN STATE   MOSUNNY   57  27  30 W14G21    30.15S
ANNAPOLIS      SUNNY     54  25  32 NW9       30.14S
FORT MEADE*    MOSUNNY   57  27  30 N9G17     30.17R

$$

MDZ012-015-019>023-012100-
MARYLAND EASTERN SHORE

CITY           SKY/WX    TMP DP  RH WIND       PRES   REMARKS
OCEAN CITY     SUNNY     48  29  47 E9        30.14S
SALISBURY      SUNNY     55  25  31 W8G23     30.13S
CAMBRIDGE*     SUNNY     54  27  35 NW7       30.15S
EASTON*        SUNNY     59  28  31 N14G22    30.18

$$

MDZ017>025-012100-
SOUTHERN MARYLAND

CITY           SKY/WX    TMP DP  RH WIND       PRES   REMARKS
PATUXENT RIVER MOSUNNY   53  27  36 NE9       30.15S
ST INIGOES     SUNNY     54  29  38 VRB5      30.15S
LEONARDTOWN*   SUNNY     55  23  28 N9G18     30.16R

$$

MDZ003>005-012100-
NORTH CENTRAL MARYLAND

CITY           SKY/WX    TMP DP  RH WIND       PRES   REMARKS
FREDERICK*     PTSUNNY   57  16  19 NW14G22   30.18S
HAGERSTOWN APT PTSUNNY   56  26  31 NW9       30.13F
WESTMINSTER*   MOSUNNY   54  21  28 NW10      30.13S

$$

MDZ501>502-012100-
WESTERN MARYLAND

CITY           SKY/WX    TMP DP  RH WIND       PRES   REMARKS
OAKLAND*       MOSUNNY   46  27  46 NW6G16    30.12F
CUMBERLAND*    SUNNY     59  25  27 NW10G18   30.17S

$$

VAZ025>031-012100-
SHENANDOAH VALLEY

CITY           SKY/WX    TMP DP  RH WIND       PRES   REMARKS
WINCHESTER*    MOSUNNY   59  14  17 NW8       30.13S
FRONT ROYAL*   FAIR      59  27  29 N7        30.11F
LURAY*         FAIR      63  28  27 N7G18     30.11F
NEW MARKET*    FAIR      60  24  25 N7        30.10S
STAUNTON*      SUNNY     58  21  23 SE5       30.12F
WAYNESBORO*    FAIR      58  23  26 SE7       30.11S

$$

WVZ021-048>050-054>055-012100-
EASTERN WEST VIRGINIA PANHANDLE

CITY           SKY/WX    TMP DP  RH WIND       PRES   REMARKS
MARTINSBURG    PTSUNNY   58  25  28 N8        30.14S
PETERSBURG*    SUNNY     58  13  17 NW10G17   30.13S

$$

VAZ036>039-050-012100-
CENTRAL FOOTHILLS

CITY           SKY/WX    TMP DP  RH WIND       PRES   REMARKS
CHARLOTTESVILL SUNNY     62  23  22 NE7       30.11F
CULPEPER*      SUNNY     61  23  23 N5        30.14S
ORANGE*        SUNNY     61  25  25 W5        30.15S
GORDONSVILLE*  FAIR      60  23  23 N5        30.12F
WARRENTON*     FAIR      61  35  36 NW8       30.14S

$$

VAZ055>057-012100-
NORTH AND CENTRAL PIEDMONT

CITY           SKY/WX    TMP DP  RH WIND       PRES   REMARKS
FREDERICKSBRG* SUNNY     60  27  27 N6        30.14S
STAFFORD*      SUNNY     59  21  23 W10G22    30.19S

$$

NCZ024-NYZ072-PAZ021-071-VAZ022-071-012100-
OTHER REGIONAL OBSERVATIONS

CITY           SKY/WX    TMP DP  RH WIND       PRES   REMARKS
NEW YORK CITY  SUNNY     50  17  27 W8        30.10S
PHILADELPHIA   MOSUNNY   56  22  26 N10G24    30.11S
PITTSBURGH     MOSUNNY   55  25  31 W9        30.13F
ROANOKE        SUNNY     66  18  15 NW12      30.11S
RICHMOND       SUNNY     62  21  20 VRB5      30.14S
RALEIGH        MOSUNNY   65  30  27 VRB5      30.12S

$$

ANZ530>537-012100-
MARINE OBSERVATIONS

STATION/POSITION TIME  TEMP    WIND        PRES
                       AIR SEA DIR/SP/G
                 (UTC) (F)     (DEG/KT/KT) (MB)
THOMAS PT LIGHT  2000                        N/A
BALT KEY BRIDGE  1900   50     290/ 12/ 16 1020.4F
COVE POINT       1900   45     340/  2/  4 1020.8F
LEWISETTA        1900   46 47              1020.9R
SOLOMONS ISLAND  1900      46                N/A
PINEY POINT      1912          130/  6/  7   N/A

$$



USA.gov is the U.S. government's official web portal to all federal, state and local government web resources and services.